| time (UTC) | temp F | wind direction | speed MPH | gust MPH | rain 1hr in | rain 24hr in | rain mn in | humidity % | barometer mb |
| 20260508043008 | 49 | 183 | 3.0 | 6.0 | 0.00 | 0.00 | 0.00 | 82 | 1013.3 |
| 20260508042006 | 49 | 178 | 3.0 | 14.0 | 0.00 | 0.00 | 0.00 | 82 | 1013.2 |
| 20260508041004 | 49 | 178 | 4.0 | 13.0 | 0.00 | 0.00 | 0.00 | 83 | 1013.1 |
| 20260508040001 | 49 | 188 | 2.0 | 12.0 | 0.00 | 0.00 | 0.00 | 83 | 1013.1 |
| 20260508035000 | 48 | 186 | 2.0 | 5.0 | 0.00 | 0.00 | 0.00 | 83 | 1013.0 |
| 20260508033959 | 48 | 188 | 2.0 | 6.0 | 0.00 | 0.00 | 0.00 | 82 | 1013.0 |
| 20260508032958 | 48 | 182 | 2.0 | 7.0 | 0.00 | 0.00 | 0.00 | 82 | 1013.1 |
| 20260508032014 | 48 | 212 | 2.0 | 9.0 | 0.00 | 0.00 | 0.00 | 82 | 1013.0 |
| 20260508030952 | 48 | 190 | 2.0 | 9.0 | 0.00 | 0.00 | 0.00 | 82 | 1012.9 |
| 20260508030011 | 48 | 187 | 2.0 | 6.0 | 0.00 | 0.00 | 0.00 | 81 | 1012.8 |
| 20260508024949 | 48 | 195 | 2.0 | 4.0 | 0.00 | 0.00 | 0.00 | 81 | 1012.6 |
| 20260508023946 | 48 | 190 | 2.0 | 6.0 | 0.00 | 0.00 | 0.00 | 81 | 1012.5 |
| 20260508022945 | 48 | 190 | 2.0 | 6.0 | 0.00 | 0.00 | 0.00 | 80 | 1012.5 |
| 20260508021942 | 48 | 178 | 2.0 | 6.0 | 0.00 | 0.00 | 0.00 | 80 | 1012.6 |
| 20260508020941 | 48 | 184 | 3.0 | 10.0 | 0.00 | 0.00 | 0.00 | 80 | 1012.5 |
| 20260508015937 | 49 | 178 | 4.0 | 6.0 | 0.00 | 0.00 | 0.00 | 80 | 1012.5 |
| 20260508014936 | 49 | 191 | 2.0 | 6.0 | 0.00 | 0.00 | 0.00 | 79 | 1012.5 |
| 20260508013934 | 49 | 183 | 3.0 | 6.0 | 0.00 | 0.00 | 0.00 | 79 | 1012.5 |
| 20260508012932 | 49 | 175 | 3.0 | 7.0 | 0.00 | 0.00 | 0.00 | 79 | 1012.4 |
| 20260508012010 | 49 | 176 | 3.0 | 6.0 | 0.00 | 0.00 | 0.00 | 79 | 1012.5 |
| 20260508010927 | 49 | 178 | 3.0 | 6.0 | 0.00 | 0.00 | 0.00 | 79 | 1012.5 |
| 20260508005926 | 49 | 178 | 4.0 | 6.0 | 0.00 | 0.00 | 0.00 | 78 | 1012.4 |
| 20260508004924 | 50 | 172 | 4.0 | 6.0 | 0.00 | 0.00 | 0.00 | 78 | 1012.4 |
| 20260508003942 | 50 | 181 | 3.0 | 6.0 | 0.00 | 0.00 | 0.00 | 78 | 1012.3 |
| 20260508002940 | 50 | 181 | 3.0 | 9.0 | 0.00 | 0.00 | 0.00 | 77 | 1012.3 |
| 20260508001938 | 50 | 183 | 3.0 | 6.0 | 0.00 | 0.00 | 0.00 | 77 | 1012.4 |
| 20260508000917 | 51 | 176 | 2.0 | 6.0 | 0.00 | 0.00 | 0.00 | 77 | 1012.3 |
| 20260507235934 | 51 | 178 | 3.0 | 7.0 | 0.00 | 0.00 | 0.00 | 77 | 1012.3 |
| 20260507234913 | 51 | 176 | 4.0 | 9.0 | 0.00 | 0.00 | 0.00 | 76 | 1012.3 |
| 20260507233910 | 51 | 176 | 4.0 | 7.0 | 0.00 | 0.00 | 0.00 | 76 | 1012.4 |
| 20260507232908 | 51 | 176 | 4.0 | 8.0 | 0.00 | 0.00 | 0.00 | 75 | 1012.4 |
| 20260507231925 | 51 | 174 | 4.0 | 9.0 | 0.00 | 0.00 | 0.00 | 75 | 1012.4 |
| 20260507230904 | 51 | 173 | 4.0 | 7.0 | 0.00 | 0.00 | 0.00 | 75 | 1012.5 |
| 20260507225902 | 52 | 178 | 4.0 | 11.0 | 0.00 | 0.00 | 0.00 | 74 | 1012.5 |
| 20260507224859 | 52 | 176 | 4.0 | 7.0 | 0.00 | 0.00 | 0.00 | 74 | 1012.6 |
| 20260507223938 | 52 | 172 | 4.0 | 8.0 | 0.00 | 0.00 | 0.00 | 73 | 1012.6 |
| 20260507222856 | 53 | 170 | 4.0 | 6.0 | 0.00 | 0.00 | 0.00 | 73 | 1012.6 |
| 20260507221854 | 53 | 180 | 4.0 | 17.0 | 0.00 | 0.00 | 0.00 | 72 | 1012.6 |
| 20260507220852 | 53 | 177 | 4.0 | 11.0 | 0.00 | 0.00 | 0.00 | 71 | 1012.7 |
| 20260507215850 | 53 | 171 | 5.0 | 9.0 | 0.00 | 0.00 | 0.00 | 71 | 1012.6 |
| 20260507214848 | 54 | 60 | 1.0 | 9.0 | 0.00 | 0.00 | 0.00 | 70 | 1012.6 |
| 20260507213846 | 54 | 181 | 4.0 | 9.0 | 0.00 | 0.00 | 0.00 | 70 | 1012.6 |
| 20260507212844 | 55 | 170 | 4.0 | 8.0 | 0.00 | 0.00 | 0.00 | 69 | 1012.6 |
| 20260507211842 | 55 | 169 | 5.0 | 10.0 | 0.00 | 0.00 | 0.00 | 68 | 1012.5 |
| 20260507210840 | 55 | 183 | 2.0 | 6.0 | 0.00 | 0.00 | 0.00 | 68 | 1012.7 |
| 20260507205838 | 56 | 169 | 4.0 | 11.0 | 0.00 | 0.00 | 0.00 | 67 | 1012.5 |
| 20260507204839 | 56 | 173 | 5.0 | 14.0 | 0.00 | 0.00 | 0.00 | 67 | 1012.3 |
| 20260507203834 | 56 | 166 | 5.0 | 12.0 | 0.00 | 0.00 | 0.00 | 66 | 1012.4 |
| 20260507202832 | 57 | 171 | 5.0 | 11.0 | 0.00 | 0.00 | 0.00 | 66 | 1012.3 |
| 20260507201831 | 57 | 172 | 4.0 | 9.0 | 0.00 | 0.00 | 0.00 | 65 | 1012.5 |
| 20260507200827 | 58 | 175 | 4.0 | 9.0 | 0.00 | 0.00 | 0.00 | 64 | 1012.5 |
| 20260507195826 | 58 | 177 | 4.0 | 7.0 | 0.00 | 0.00 | 0.00 | 64 | 1012.6 |
| 20260507194823 | 58 | 180 | 2.0 | 6.0 | 0.00 | 0.00 | 0.00 | 63 | 1012.6 |
| 20260507193822 | 59 | 195 | 2.0 | 11.0 | 0.00 | 0.00 | 0.00 | 62 | 1012.6 |
| 20260507192820 | 59 | 180 | 2.0 | 7.0 | 0.00 | 0.00 | 0.00 | 62 | 1012.5 |
| 20260507191817 | 60 | 177 | 3.0 | 11.0 | 0.00 | 0.00 | 0.00 | 61 | 1012.4 |
| 20260507190815 | 61 | 188 | 2.0 | 9.0 | 0.00 | 0.00 | 0.00 | 60 | 1012.4 |
| 20260507185813 | 61 | 178 | 3.0 | 7.0 | 0.00 | 0.00 | 0.00 | 59 | 1012.4 |
| 20260507184833 | 62 | 175 | 4.0 | 8.0 | 0.00 | 0.00 | 0.00 | 58 | 1012.4 |
| 20260507183810 | 63 | 181 | 4.0 | 11.0 | 0.00 | 0.00 | 0.00 | 57 | 1012.3 |
| 20260507182808 | 64 | 193 | 2.0 | 6.0 | 0.00 | 0.00 | 0.00 | 57 | 1012.3 |
| 20260507181807 | 64 | 178 | 4.0 | 11.0 | 0.00 | 0.00 | 0.00 | 56 | 1012.2 |
| 20260507180824 | 65 | 172 | 4.0 | 7.0 | 0.00 | 0.00 | 0.00 | 55 | 1012.1 |
| 20260507175802 | 65 | 174 | 5.0 | 9.0 | 0.00 | 0.00 | 0.00 | 54 | 1012.1 |
| 20260507174800 | 66 | 174 | 4.0 | 9.0 | 0.00 | 0.00 | 0.00 | 53 | 1012.0 |
| 20260507173817 | 67 | 170 | 5.0 | 9.0 | 0.00 | 0.00 | 0.00 | 52 | 1011.9 |
| 20260507172756 | 67 | 177 | 4.0 | 8.0 | 0.00 | 0.00 | 0.00 | 51 | 1011.9 |
| 20260507171754 | 68 | 184 | 4.0 | 7.0 | 0.00 | 0.00 | 0.00 | 50 | 1011.9 |
| 20260507170752 | 68 | 180 | 4.0 | 8.0 | 0.00 | 0.00 | 0.00 | 48 | 1011.8 |
| 20260507165810 | 69 | 174 | 5.0 | 10.0 | 0.00 | 0.00 | 0.00 | 48 | 1011.8 |
| 20260507164748 | 69 | 172 | 5.0 | 10.0 | 0.00 | 0.00 | 0.00 | 48 | 1011.8 |
| 20260507163746 | 70 | 172 | 6.0 | 15.0 | 0.00 | 0.00 | 0.00 | 47 | 1011.6 |
| 20260507162744 | 70 | 176 | 4.0 | 9.0 | 0.00 | 0.00 | 0.00 | 47 | 1011.6 |
| 20260507161742 | 70 | 166 | 6.0 | 13.0 | 0.00 | 0.00 | 0.00 | 46 | 1011.7 |
| 20260507160740 | 71 | 176 | 6.0 | 19.0 | 0.00 | 0.00 | 0.00 | 46 | 1011.7 |
| 20260507155739 | 71 | 172 | 5.0 | 9.0 | 0.00 | 0.00 | 0.00 | 45 | 1011.7 |
| 20260507154736 | 72 | 168 | 5.0 | 9.0 | 0.00 | 0.00 | 0.00 | 45 | 1011.8 |
| 20260507153734 | 72 | 169 | 7.0 | 15.0 | 0.00 | 0.00 | 0.00 | 44 | 1011.8 |
| 20260507152732 | 72 | 172 | 6.0 | 12.0 | 0.00 | 0.00 | 0.00 | 43 | 1011.8 |
| 20260507151731 | 73 | 177 | 7.0 | 24.0 | 0.00 | 0.00 | 0.00 | 43 | 1011.8 |
| 20260507150727 | 73 | 174 | 5.0 | 15.0 | 0.00 | 0.00 | 0.00 | 43 | 1011.8 |
| 20260507145725 | 73 | 174 | 7.0 | 12.0 | 0.00 | 0.00 | 0.00 | 42 | 1011.8 |
| 20260507144724 | 73 | 169 | 6.0 | 12.0 | 0.00 | 0.00 | 0.00 | 42 | 1011.9 |
| 20260507143721 | 73 | 169 | 6.0 | 12.0 | 0.00 | 0.00 | 0.00 | 42 | 1012.0 |
| 20260507142740 | 73 | 170 | 6.0 | 11.0 | 0.00 | 0.00 | 0.00 | 41 | 1012.1 |
| 20260507141717 | 74 | 178 | 6.0 | 12.0 | 0.00 | 0.00 | 0.00 | 40 | 1012.1 |
| 20260507140716 | 74 | 168 | 6.0 | 13.0 | 0.00 | 0.00 | 0.00 | 39 | 1012.2 |
| 20260507135714 | 74 | 176 | 7.0 | 12.0 | 0.00 | 0.00 | 0.00 | 39 | 1012.2 |
| 20260507134711 | 74 | 164 | 6.0 | 10.0 | 0.00 | 0.00 | 0.00 | 39 | 1012.2 |
| 20260507133730 | 75 | 178 | 4.0 | 11.0 | 0.00 | 0.00 | 0.00 | 39 | 1012.2 |
| 20260507132710 | 75 | 178 | 6.0 | 12.0 | 0.00 | 0.00 | 0.00 | 39 | 1012.2 |
| 20260507131746 | 75 | 178 | 6.0 | 20.0 | 0.00 | 0.00 | 0.00 | 39 | 1012.3 |
| 20260507130704 | 74 | 177 | 6.0 | 9.0 | 0.00 | 0.00 | 0.00 | 39 | 1012.4 |
| 20260507125723 | 74 | 170 | 6.0 | 16.0 | 0.00 | 0.00 | 0.00 | 38 | 1012.5 |
| 20260507124700 | 74 | 171 | 6.0 | 11.0 | 0.00 | 0.00 | 0.00 | 38 | 1012.7 |
| 20260507123658 | 75 | 174 | 6.0 | 11.0 | 0.00 | 0.00 | 0.00 | 38 | 1012.8 |
| 20260507122655 | 75 | 172 | 5.0 | 11.0 | 0.00 | 0.00 | 0.00 | 39 | 1012.7 |
| 20260507121654 | 75 | 178 | 4.0 | 11.0 | 0.00 | 0.00 | 0.00 | 38 | 1012.8 |
| 20260507120733 | 75 | 172 | 5.0 | 12.0 | 0.00 | 0.00 | 0.00 | 38 | 1013.0 |
| 20260507115650 | 75 | 164 | 5.0 | 12.0 | 0.00 | 0.00 | 0.00 | 38 | 1012.9 |
| 20260507114648 | 74 | 178 | 4.0 | 20.0 | 0.00 | 0.00 | 0.00 | 38 | 1013.1 |
| 20260507113646 | 74 | 175 | 5.0 | 12.0 | 0.00 | 0.00 | 0.00 | 37 | 1013.2 |
| 20260507112644 | 74 | 170 | 6.0 | 11.0 | 0.00 | 0.00 | 0.00 | 37 | 1013.2 |
| 20260507111642 | 74 | 177 | 6.0 | 16.0 | 0.00 | 0.00 | 0.00 | 38 | 1013.2 |
| 20260507110640 | 74 | 177 | 6.0 | 16.0 | 0.00 | 0.00 | 0.00 | 37 | 1013.2 |
| 20260507105638 | 74 | 180 | 5.0 | 9.0 | 0.00 | 0.00 | 0.00 | 37 | 1013.2 |
| 20260507104636 | 74 | 175 | 6.0 | 11.0 | 0.00 | 0.00 | 0.00 | 37 | 1013.2 |
| 20260507103634 | 73 | 173 | 5.0 | 12.0 | 0.00 | 0.00 | 0.00 | 38 | 1013.2 |
| 20260507102632 | 73 | 177 | 5.0 | 17.0 | 0.00 | 0.00 | 0.00 | 39 | 1013.3 |
| 20260507101630 | 73 | 178 | 6.0 | 14.0 | 0.00 | 0.00 | 0.00 | 38 | 1013.4 |
| 20260507100628 | 73 | 176 | 5.0 | 12.0 | 0.00 | 0.00 | 0.00 | 38 | 1013.4 |
| 20260507095626 | 72 | 178 | 4.0 | 11.0 | 0.00 | 0.00 | 0.00 | 38 | 1013.4 |
| 20260507094644 | 72 | 183 | 4.0 | 20.0 | 0.00 | 0.00 | 0.00 | 39 | 1013.5 |
| 20260507093622 | 71 | 168 | 6.0 | 12.0 | 0.00 | 0.00 | 0.00 | 39 | 1013.5 |
| 20260507092621 | 71 | 175 | 6.0 | 13.0 | 0.00 | 0.00 | 0.00 | 38 | 1013.5 |
| 20260507091618 | 71 | 175 | 6.0 | 15.0 | 0.00 | 0.00 | 0.00 | 39 | 1013.5 |
| 20260507090616 | 71 | 165 | 6.0 | 11.0 | 0.00 | 0.00 | 0.00 | 39 | 1013.6 |
| 20260507085614 | 70 | 163 | 6.0 | 14.0 | 0.00 | 0.00 | 0.00 | 39 | 1013.5 |
| 20260507084632 | 70 | 168 | 6.0 | 14.0 | 0.00 | 0.00 | 0.00 | 39 | 1013.5 |
| 20260507083610 | 70 | 165 | 7.0 | 12.0 | 0.00 | 0.00 | 0.00 | 39 | 1013.5 |
| 20260507082608 | 69 | 174 | 4.0 | 11.0 | 0.00 | 0.00 | 0.00 | 42 | 1013.5 |
| 20260507081607 | 69 | 165 | 6.0 | 14.0 | 0.00 | 0.00 | 0.00 | 41 | 1013.6 |
| 20260507080624 | 68 | 165 | 7.0 | 16.0 | 0.00 | 0.00 | 0.00 | 41 | 1013.6 |
| 20260507075601 | 68 | 171 | 6.0 | 11.0 | 0.00 | 0.00 | 0.00 | 43 | 1013.6 |
| 20260507074600 | 67 | 169 | 6.0 | 12.0 | 0.00 | 0.00 | 0.00 | 43 | 1013.7 |
| 20260507073558 | 66 | 170 | 6.0 | 11.0 | 0.00 | 0.00 | 0.00 | 45 | 1013.7 |
| 20260507072617 | 66 | 171 | 5.0 | 9.0 | 0.00 | 0.00 | 0.00 | 49 | 1013.7 |
| 20260507071553 | 65 | 180 | 5.0 | 14.0 | 0.00 | 0.00 | 0.00 | 51 | 1013.6 |
| 20260507070552 | 64 | 166 | 4.0 | 11.0 | 0.00 | 0.00 | 0.00 | 51 | 1013.6 |
| 20260507065552 | 64 | 174 | 4.0 | 8.0 | 0.00 | 0.00 | 0.00 | 51 | 1013.6 |
| 20260507064548 | 63 | 172 | 4.0 | 7.0 | 0.00 | 0.00 | 0.00 | 52 | 1013.6 |
| 20260507063546 | 62 | 175 | 4.0 | 16.0 | 0.00 | 0.00 | 0.00 | 52 | 1013.6 |
| 20260507062544 | 62 | 177 | 4.0 | 7.0 | 0.00 | 0.00 | 0.00 | 53 | 1013.6 |
| 20260507061542 | 61 | 169 | 4.0 | 9.0 | 0.00 | 0.00 | 0.00 | 53 | 1013.6 |
| 20260507060540 | 61 | 180 | 4.0 | 10.0 | 0.00 | 0.00 | 0.00 | 53 | 1013.6 |
| 20260507055537 | 61 | 176 | 3.0 | 7.0 | 0.00 | 0.00 | 0.00 | 56 | 1013.5 |
| 20260507054536 | 60 | 178 | 3.0 | 7.0 | 0.00 | 0.00 | 0.00 | 57 | 1013.6 |
| 20260507053534 | 58 | 178 | 3.0 | 16.0 | 0.00 | 0.00 | 0.00 | 58 | 1013.6 |
| 20260507052552 | 57 | 165 | 4.0 | 7.0 | 0.00 | 0.00 | 0.00 | 60 | 1013.5 |
| 20260507051529 | 55 | 184 | 3.0 | 7.0 | 0.00 | 0.00 | 0.00 | 62 | 1013.5 |
| 20260507050528 | 53 | 181 | 3.0 | 11.0 | 0.00 | 0.00 | 0.00 | 63 | 1013.4 |
| 20260507045527 | 52 | 180 | 3.0 | 6.0 | 0.00 | 0.00 | 0.00 | 64 | 1013.3 |
| 20260507044524 | 52 | 181 | 2.0 | 7.0 | 0.00 | 0.00 | 0.00 | 63 | 1013.2 |